Currently 58°F in French Valley, California, USA
58°F
68°F / 57°F
4 mph S
0.02"
Sunday, May 3, 2026 9:51 PM PDT

French Valley, California Weather Summary
Last 36 Hours

Temperature Winds Hourly Humidity Dewpoint
Time Report Norm Report Norm Max Gusts Precip. Rpt. Norm Rpt. Norm Pressure
1Sun 09:51 PM  57.6°F  60°F  4 mph S  2 mph  8 mph  0.00"  96%  81%  57°F  53°F  29.98"
Sun 09:00 PM  57.8°F  61°F  8 mph S  2 mph  12 mph  0.00"  95%  78%  56°F  54°F  29.97"
Sun 08:00 PM  58.9°F  63°F  7 mph S  3 mph  16 mph  0.00"  88%  73%  55°F  54°F  29.95"
Sun 07:00 PM  61.0°F  67°F  8 mph S  4 mph  16 mph  0.00"  78%  66%  54°F  54°F  29.93"
Sun 06:00 PM  64.8°F  70°F  7 mph SW  5 mph  20 mph  0.00"  72%  59%  55°F  54°F  29.91"
Sun 05:00 PM  67.5°F  72°F  9 mph S  6 mph  14 mph  0.00"  69%  54%  57°F  54°F  29.90"
2Sun 04:23 PM  67.9°F  73°F  8 mph SW  6 mph  12 mph  ----  69%  52%  57°F  54°F  29.90"
Sun 04:00 PM  67.1°F  74°F  7 mph SW  5 mph  15 mph  0.00"  70%  51%  57°F  54°F  29.91"
Sun 03:00 PM  66.6°F  75°F  7 mph SW  5 mph  12 mph  0.00"  75%  50%  58°F  54°F  29.93"
Sun 02:00 PM  63.7°F  75°F  5 mph S  5 mph  14 mph  0.00"  87%  48%  60°F  53°F  29.95"
Sun 01:00 PM  61.5°F  74°F  4 mph SW  4 mph  11 mph  0.00"  97%  49%  61°F  53°F  29.96"
Sun 12:00 PM  59.9°F  72°F  3 mph W  3 mph  11 mph  0.00"  100%  52%  60°F  52°F  29.98"
Sun 11:00 AM  58.5°F  69°F  5 mph SW  3 mph  10 mph  0.00"  100%  58%  58°F  53°F  29.99"
Sun 10:00 AM  58.3°F  65°F  4 mph SW  2 mph  9 mph  0.00"  100%  66%  58°F  53°F  29.98"
Sun 09:00 AM  57.4°F  61°F  3 mph S  2 mph  9 mph  0.00"  100%  76%  57°F  53°F  29.97"
3Sun 08:42 AM  56.7°F  60°F  7 mph SW  2 mph  9 mph  ----  100%  78%  57°F  53°F  29.97"
Sun 08:00 AM  56.7°F  58°F  3 mph SW  1 mph  8 mph  0.01"  100%  83%  57°F  52°F  29.97"
Sun 07:00 AM  56.8°F  54°F  4 mph SW  1 mph  8 mph  0.01"  100%  87%  57°F  51°F  29.96"
Sun 06:00 AM  57.3°F  54°F  2 mph W  1 mph  6 mph  0.00"  100%  88%  57°F  50°F  29.93"
Sun 05:00 AM  57.3°F  54°F  3 mph SW  1 mph  8 mph  0.00"  100%  87%  57°F  50°F  29.93"
Sun 04:00 AM  57.4°F  55°F  2 mph S  1 mph  8 mph  0.00"  100%  87%  57°F  51°F  29.92"
Sun 03:00 AM  57.9°F  55°F  5 mph S  1 mph  8 mph  0.00"  100%  86%  58°F  51°F  29.93"
Sun 02:00 AM  57.7°F  56°F  5 mph SW  1 mph  8 mph  0.00"  100%  85%  58°F  51°F  29.94"
Sun 01:00 AM  58.2°F  56°F  4 mph SW  1 mph  10 mph  0.00"  100%  85%  58°F  52°F  29.95"
Sun 12:11 AM  58.3°F  57°F  4 mph S  1 mph  10 mph  0.00"  100%  84%  58°F  52°F  29.93"
Sat 11:00 PM  58.9°F  58°F  3 mph SE  1 mph  7 mph  0.00"  100%  83%  59°F  53°F  29.92"
Sat 10:00 PM  60.5°F  59°F  4 mph SE  2 mph  7 mph  0.00"  100%  81%  61°F  53°F  29.90"
Sat 09:00 PM  63.7°F  61°F  3 mph SE  2 mph  9 mph  0.00"  98%  78%  63°F  54°F  29.87"
Sat 08:00 PM  67.0°F  63°F  5 mph S  3 mph  10 mph  0.00"  89%  73%  64°F  54°F  29.85"
Sat 07:00 PM  71.8°F  67°F  3 mph S  4 mph  11 mph  0.00"  75%  65%  63°F  54°F  29.83"
Sat 06:00 PM  73.3°F  70°F  6 mph S  5 mph  13 mph  0.00"  72%  59%  63°F  54°F  29.83"
Sat 05:01 PM  75.8°F  72°F  8 mph S  6 mph  15 mph  0.00"  66%  54%  63°F  54°F  29.83"
Sat 05:00 PM  76.1°F  72°F  7 mph S  6 mph  15 mph  0.00"  66%  54%  64°F  54°F  29.83"
Sat 05:00 PM  76.1°F  72°F  7 mph SW  6 mph  15 mph  0.00"  66%  54%  63°F  54°F  29.83"
Sat 04:00 PM  77.9°F  74°F  10 mph S  5 mph  15 mph  0.00"  60%  51%  62°F  54°F  29.84"
Sat 03:00 PM  80.5°F  75°F  7 mph SW  5 mph  14 mph  0.00"  57%  50%  64°F  54°F  29.86"
Sat 02:00 PM  79.6°F  75°F  3 mph SW  5 mph  12 mph  0.00"  58%  48%  63°F  53°F  29.88"
Sat 01:00 PM  77.4°F  74°F  6 mph S  4 mph  11 mph  0.00"  59%  49%  61°F  53°F  29.92"
Sat 12:00 PM  73.6°F  72°F  2 mph W  3 mph  8 mph  0.00"  69%  52%  62°F  52°F  29.94"
Sat 11:00 AM  66.8°F  69°F  3 mph S  3 mph  9 mph  0.00"  94%  58%  65°F  53°F  29.98"
Sat 10:00 AM  60.6°F  65°F  3 mph NW  2 mph  8 mph  0.00"  100%  66%  61°F  53°F  29.99"

  1. Current weather data. No green row appears if the current weather data is also the high or low for the current day.
  2. High temperature for the current day.
  3. Low temperature for the current day.

The French Valley, California weather pages are a service of WeatherCurrents. French Valley is located in southwestern Riverside County, California, north of Temecula, east of Murrieta, and south of Winchester. French Valley is bordered by Lake Skinner.
Copyright ©Sun May 03 21:51:27 PDT 2026  WeatherCurrents. All rights reserved. - Submit questions and comments - Privacy Policy

This page automatically refreshes every 10 minutes.